< < Back
Terminal Aerodrome Forecast


Current Version              Previous Versions:   1  2  3  4  5  6  7  8  9  

Terminal Aerodrome Forecast

516
FTUS42 KTAE 231121
TAFABY
TAF
KABY 231121Z 2312/2412 VRB03KT P6SM SCT250
     FM231800 22007KT P6SM FEW040 SCT250
     FM240000 20004KT P6SM FEW250=



Latest METAR

049
SAUS70 KWBC 240300 RRK
MTRABY
METAR KABY 240253Z AUTO 25004KT 10SM CLR 28/23 A3003 RMK AO2 SLP165
T02830228 51019


USA.gov is the U.S. government's official web portal to all federal, state and local government web resources and services.